GONETS D1 9

Satellite information

Favourite Embed

Satellite Type and Status

PAYLOADIN ORBIT

Key statistics

Satellite GONETS D1 9 at a glance.

Uptime

8717

Days in orbit

Revolutions

≈ 12.6

Per day

Orbit

LEO

Low Earth Orbit

Inclination

82.5

Latest

Satellite identification and parameters

Extended collection of information and parameters for GONETS D1 9.

Object identification

Identified? True

Debris? False

Object name: GONETS D1 9

International designator: 2001-058F

Object number (NORAD): 27060

Object ID (CCSDS): 27060

Country: COMMONWEALTH OF INDEPENDENT STATES (CIS)

Current information (Y/N): Y

RCS size: MEDIUM

Orbital parameters

Period: 114.009 minutes

Inclination: 82.5409 deg

SMA: 7788.491 km

Apoapsis: 1417.833 km

Periapsis: 1402.879 km

RAAN: 337.8059 deg

Eccentricy: 0.00096

Argument of periapsis: 88.046 deg

Mean anomaly: 272.1731 deg

Mean motion: 12.63056533 rev/day

Mean motion (dot): 0.0000001 rev/day2

B* drag term: -0.0000015123 1/REarth

Two-line elements (TLE)

Creation date: Nov. 8, 2025, 3:06 p.m.

Reference frame: TEME

Reference center: EARTH

Epoch: Nov. 8, 2025, 10:51 a.m. UTC

TLE line 0: 0 GONETS D1 9

TLE line 1: 1 27060U 01058F 25312.45214634 .00000010 00000-0 -15123-5 0 9990

TLE line 2: 2 27060 82.5409 337.8059 0009600 88.0460 272.1731 12.63056533 99961

Live tracking on map

Real-time ground track for satellite GONETS D1 9.

In-orbit conjunctions

There are no conjunctions computed for GONETS D1 9, at the moment. Check back to stay up to date, as we update our databases every day.

Go to all conjunctions

Associated space launch

Gonets- satellite were the civilian derivate of the military Strela-3 satellite system. The Gonets system was offered to support international health organizations to meet their global communications needs for the transfer of medical data and records to remote sites. Strela-3 was second generation of strategic store-dump military communications satellite. Development of this generation to replace the first generation Strela-1M and Strela-2M satellites began in 1973.

GONETS D1 9 was lifted into orbit during the mission ‘Tsiklon-3 | Strela-3 128 to 130 & Gonets 10 to 12’, on board a Tsiklon-3 space rocket.

The launch took place on Dec. 28, 2001, 3:24 a.m. from 32/1.

For more information about the launch, click the button.

Launch to space Tsiklon-3 | Strela-3 128 to 130 & Gonets 10 to 12
Tsiklon-3 | Strela-3 128 to 130 & Gonets 10 to 12

Agency: N/A

Status: Launch Successful

Launch date: Dec. 28, 2001, 3:24 a.m. UTC

Rocket: Tsiklon-3

Launch pad: 32/1

Location: Plesetsk Cosmodrome, Russian Federation

...

Latest news about this satellite

There are no fresh news available about this satellite. Check back as we update our databases every day.


Newsletter sign-up

Weekly statistics, charts and insights to help you stay on top of the space industry.